VNREDSAT 1

Last updated on Sat Apr 26 2025 00:02:25 GMT+0000 (Coordinated Universal Time)

1 39160U 13021B 25115.55261139 .00001304 00000+0 25271-3 0 9999 2 39160 97.9527 178.6859 0001472 88.3885 271.7487 14.64848652639145
UTC large
Height (km)
Speed (km/s)
/
Latitude / Longitude
Inclination (degrees)
Orbital Period (minutes)
Azimuth
Elevation
Range (km)
Doppler Factor

Next 0 passes for location: London (51.5072 / 0.1276)

Sorry there are no passes over London.